EW6456 Weather Reports


time (UTC)temp
F
wind
direction
speed
knots
gust
knots
rain 1hr
in
rain 24hr
in
rain mn
in
humidity
%
barometer
mb
20260906223058 76 46 0.0 7.8 0.00 0.00 0.00 64 1007.1
20260906221557 76 53 0.0 5.2 0.00 0.00 0.00 65 1007.1
20260906220054 76 63 0.0 4.3 0.00 0.00 0.00 64 1007.2
20260906214552 75 45 0.0 9.6 0.00 0.00 0.00 65 1007.3
20260906213054 75 49 0.0 5.2 0.00 0.00 0.00 65 1007.5
20260906211548 75 76 0.0 2.6 0.00 0.00 0.00 66 1007.7
20260906204558 74 62 0.0 2.6 0.00 0.00 0.00 67 1008.4
20260906203035 73 330 0.0 5.2 0.00 0.00 0.00 67 1008.5
20260906201534 73 24 0.9 10.4 0.00 0.00 0.00 68 1008.5
20260906200030 71 60 0.0 10.4 0.00 0.00 0.00 70 1008.9
20260906194527 71 26 0.0 2.6 0.00 0.00 0.00 70 1009.3
20260906193022 70 21 0.0 10.4 0.00 0.00 0.00 71 1009.5
20260906191520 69 9 0.0 7.8 0.00 0.00 0.00 73 1009.7
20260906190016 68 13 0.0 2.6 0.00 0.00 0.00 75 1009.9
20260906184516 67 359 0.9 7.0 0.00 0.00 0.00 76 1009.9
20260906183015 67 356 0.9 12.2 0.00 0.00 0.00 77 1010.2
20260906181512 67 312 1.7 8.7 0.00 0.00 0.00 78 1010.5
20260906180012 67 321 1.7 9.6 0.00 0.00 0.00 78 1010.7
20260906174512 66 353 0.0 5.2 0.00 0.00 0.00 78 1011.1
20260906173040 66 39 0.9 6.1 0.00 0.00 0.00 79 1011.4
20260906171542 66 20 0.9 7.8 0.00 0.00 0.00 79 1011.7
20260906170039 65 25 0.0 9.6 0.00 0.00 0.00 80 1011.7
20260906164537 65 329 0.9 8.7 0.00 0.00 0.00 79 1011.8
20260906163036 65 330 0.0 10.4 0.00 0.00 0.00 80 1011.8
20260906161542 64 332 0.0 2.6 0.00 0.00 0.00 82 1011.8
20260906160032 65 321 0.0 0.0 0.00 0.00 0.00 82 1011.9
20260906154542 65 4 0.0 0.0 0.00 0.00 0.00 81 1011.5
20260906153035 65 12 0.0 3.5 0.00 0.00 0.00 82 1010.7
20260906151531 63 282 0.9 11.3 0.00 0.00 0.00 85 1010.6
20260906150032 63 288 0.0 0.9 0.00 0.00 0.00 84 1011.7
20260906144528 64 192 0.0 0.9 0.00 0.00 0.00 83 1011.4
20260906143027 63 62 0.0 0.0 0.00 0.00 0.00 83 1010.6
20260906141526 63 282 0.0 0.0 0.00 0.00 0.00 84 1011.4
20260906140100 61 282 0.0 0.0 0.00 0.00 0.00 88 1011.3
20260906134557 58 282 0.0 0.0 0.00 0.00 0.00 90 1011.3
20260906133051 0 0.0 0.0 0.00 0.00 0.00 1011.2
20260906131547 0 0.0 0.0 0.00 0.00 0.00 1010.9
20260906130050 0 0.0 0.0 0.00 0.00 0.00 1011.4
20260906124537 0 0.0 0.0 0.00 0.00 0.00 1011.3
20260906123040 0 0.0 0.0 0.00 0.00 0.00 1011.3
20260906121527 0 0.0 0.0 0.00 0.00 0.00 1010.9
20260906120021 0 0.0 0.0 0.00 0.00 0.00 1011.4
20260906114520 0 0.0 0.0 0.00 0.00 0.00 1011.7
20260906113046 58 282 0.0 0.0 0.00 0.00 0.00 86 1011.6
20260906111548 58 257 0.0 0.0 0.00 0.00 0.00 86 1011.7
20260906110040 59 318 0.0 0.0 0.00 0.00 0.00 87 1011.5
20260906104543 59 251 0.0 0.0 0.00 0.00 0.00 85 1011.4
20260906103046 59 251 0.0 0.0 0.00 0.00 0.00 85 1011.8
20260906101539 60 262 0.0 0.0 0.00 0.00 0.00 84 1011.5
20260906100033 60 325 0.0 0.0 0.00 0.00 0.00 83 1010.9
20260906094541 61 294 0.0 0.9 0.00 0.00 0.00 81 1011.2
20260906093037 62 319 0.0 0.0 0.00 0.00 0.00 81 1010.9
20260906091535 63 307 0.0 0.0 0.00 0.00 0.00 79 1010.8
20260906090027 63 7 0.0 0.0 0.00 0.00 0.00 78 1010.8
20260906084527 64 314 0.0 0.0 0.00 0.00 0.00 78 1011.1
20260906083025 64 339 0.0 0.0 0.00 0.00 0.00 78 1011.2
20260906081524 65 314 0.0 0.0 0.00 0.00 0.00 78 1011.4
20260906080022 65 343 0.0 0.0 0.00 0.00 0.00 76 1011.5
20260906074520 65 315 0.0 8.7 0.00 0.00 0.00 74 1011.6
20260906073020 68 86 9.6 19.1 0.00 0.00 0.00 71 1009.8
20260906071515 65 245 11.3 23.5 0.00 0.00 0.00 71 1012.6
20260906070020 62 65 0.9 11.3 0.00 0.00 0.00 69 1010.8
20260906064537 61 267 0.0 0.0 0.00 0.00 0.00 71 1012.8
20260906063038 61 236 0.0 0.0 0.00 0.00 0.00 69 1012.0
20260906061533 61 1 0.0 0.0 0.00 0.00 0.00 68 1011.7
20260906060031 64 1 0.0 0.0 0.00 0.00 0.00 62 1011.7
20260906054548 66 356 0.0 0.0 0.00 0.00 0.00 61 1011.7
20260906053028 64 307 0.0 0.0 0.00 0.00 0.00 61 1011.8
20260906051533 63 302 0.0 0.0 0.00 0.00 0.00 60 1011.9
20260906050030 63 278 0.0 0.0 0.00 0.00 0.00 59 1011.8
20260906044524 63 277 0.0 0.0 0.00 0.00 0.00 59 1011.7
20260906043024 66 3 0.0 0.0 0.00 0.00 0.00 54 1011.4
20260906041523 66 3 0.0 0.0 0.00 0.00 0.00 53 1011.4
20260906040021 66 44 0.0 0.0 0.00 0.00 0.00 54 1011.3
20260906034522 66 44 0.0 0.0 0.00 0.00 0.00 53 1011.2
20260906033020 67 44 0.0 0.0 0.00 0.00 0.00 50 1011.2
20260906031552 68 43 0.0 0.0 0.00 0.00 0.00 49 1011.3
20260906030016 68 96 0.0 0.0 0.00 0.00 0.00 49 1011.4
20260906024535 69 49 0.0 0.0 0.00 0.00 0.00 46 1011.1
20260906023020 71 347 0.0 0.0 0.00 0.00 0.00 44 1010.9
20260906021513 73 333 0.0 0.0 0.00 0.00 0.00 43 1010.7
20260906020013 74 340 0.0 0.0 0.00 0.00 0.00 42 1010.5
20260906014517 75 24 0.0 0.0 0.00 0.00 0.00 39 1010.4
20260906013012 77 351 0.0 0.0 0.00 0.00 0.00 38 1010.5
20260906011509 78 1 0.0 0.0 0.00 0.00 0.00 36 1010.4
20260906010022 79 16 0.0 3.5 0.00 0.00 0.00 35 1010.3
20260906004508 80 61 0.0 2.6 0.00 0.00 0.00 34 1010.4
20260906003007 80 61 0.0 7.8 0.00 0.00 0.00 33 1010.3
20260906001503 80 38 0.0 4.3 0.00 0.00 0.00 32 1010.4
20260906000007 80 58 0.0 7.0 0.00 0.00 0.00 32 1010.3
20260905234501 81 41 0.9 16.5 0.00 0.00 0.00 31 1010.0
20260905233001 81 65 5.2 13.9 0.00 0.00 0.00 30 1009.9
20260905231559 81 56 4.3 13.0 0.00 0.00 0.00 29 1009.9
20260905230059 81 44 2.6 15.6 0.00 0.00 0.00 30 1009.8
20260905224558 81 6 5.2 13.9 0.00 0.00 0.00 29 1009.8